ROMMA est une association bénévole à but non lucratif. Votre soutien est indispensable : ADHERER à ROMMA ou FAIRE un DON

Chambon - (38, Isère)

Oisans (2460 m)   Longitude: 06° 10' 42" E   Latitude: 45° 01' 32" N Station partenaire n°803
 

Détail journalier du     <<     >>

Température Humidité Vent Dir Rafale Dir. rafale Neige 1 Neige 2
Heure (°C) (%) (km/h) (km/h) (cm) (cm)
01:00 8.98510NE14NE50
02:00 9.57416NE25NE40
03:00 9.07415NNE26NNE40
04:00 9.1679NNE20NE50
05:00 9.1574NE15NE40
06:00 8.8602O7O20
07:00 9.2592N5NNE10
08:00 9.8524NNE8SSO20
09:00 12.2504NNE8NNE40
10:00 12.3524NNE16NNE10
11:00 13.1544NNE14NNE00
12:00 13.2578NNE23NE00
13:00 13.2617N23NE10
14:00 14.1584NO15NO00
15:00 13.95810OSO25O01
16:00 14.15815O27O01
17:00 13.66414O27O01
18:00 13.66215O29O01
19:00 12.56414O27O01
20:00 12.36613OSO24OSO00
21:00 10.8767SO19SO00
22:00 10.0823N13NNE00
23:00 9.3851NO7NNO00
minuit 9.1882SO6SO00

Graphique du 23-08-2019

 

Serveur OMMA